Total_Precipitation_Accumulation
0.06 0.14 0.21 0.23 0.20 0.17 0.13 0.12 0.24 0.26 0.34 0.41 0.51 0.46 0.39 0.36 0.33 0.37 0.45 0.43 0.39 0.38 0.42 0.45 0.48 0.44 0.44 0.49 0.53 0.69 1.07 1.28 1.26 1.23 1.22 1.19 1.20 1.27 1.32 1.38 1.46 1.67 1.84 1.94
0.10 0.13 0.15 0.16 0.19 0.16 0.11 0.10 0.10 0.15 0.28 0.32 0.42 0.44 0.41 0.40 0.38 0.41 0.45 0.42 0.40 0.33 0.42 0.49 0.52 0.52 0.50 0.51 0.56 0.70 0.97 1.18 1.19 1.16 1.13 1.08 1.11 1.20 1.37 1.47 1.63 1.80 1.84 1.82
0.15 0.18 0.17 0.24 0.20 0.16 0.14 0.12 0.13 0.22 0.34 0.32 0.36 0.43 0.45 0.49 0.47 0.42 0.47 0.41 0.33 0.35 0.48 0.67 0.62 0.60 0.64 0.60 0.61 0.75 0.95 1.13 1.21 1.18 1.19 1.16 1.13 1.29 1.48 1.64 1.80 1.92 1.90 1.85
0.21 0.25 0.35 0.26 0.20 0.21 0.24 0.26 0.26 0.29 0.33 0.35 0.41 0.43 0.53 0.61 0.57 0.47 0.50 0.49 0.48 0.45 0.51 0.60 0.59 0.62 0.68 0.68 0.69 0.80 0.99 1.21 1.30 1.23 1.27 1.35 1.36 1.45 1.67 1.89 2.04 2.05 2.00 1.92
0.30 0.34 0.40 0.36 0.29 0.33 0.37 0.41 0.42 0.45 0.39 0.44 0.45 0.50 0.62 0.59 0.58 0.62 0.62 0.60 0.62 0.66 0.63 0.68 0.72 0.74 0.74 0.81 0.86 0.94 1.03 1.20 1.30 1.36 1.45 1.48 1.52 1.70 1.92 2.11 2.15 2.10 2.13 2.07
0.44 0.51 0.57 0.56 0.41 0.35 0.42 0.70 0.56 0.57 0.56 0.50 0.52 0.74 0.78 0.61 0.57 0.59 0.66 0.70 0.68 0.74 0.78 0.82 0.86 0.91 0.92 0.99 1.11 1.26 1.35 1.42 1.60 1.78 1.94 2.02 2.06 2.13 2.18 2.24 2.17 2.13 2.13 2.17
0.63 0.74 0.68 0.53 0.46 0.41 0.77 1.07 0.80 0.77 0.74 0.66 0.77 0.84 0.79 0.65 0.56 0.57 0.59 0.64 0.69 0.73 0.82 0.84 0.88 1.01 1.17 1.25 1.36 1.50 1.64 1.72 1.91 2.20 2.38 2.36 2.36 2.31 2.24 2.25 2.27 2.24 2.18 2.18
0.84 1.05 1.10 0.61 0.57 0.87 1.09 0.91 0.94 0.97 0.93 0.87 0.85 0.88 0.85 0.79 0.63 0.57 0.56 0.59 0.65 0.71 0.77 0.88 1.01 1.24 1.50 1.59 1.56 1.68 1.86 2.02 2.21 2.44 2.39 2.31 2.47 2.40 2.37 2.44 2.42 2.32 2.25 2.17
1.07 1.26 1.06 0.73 0.86 1.05 1.03 0.97 0.98 0.99 0.94 0.84 0.78 0.90 0.84 0.74 0.69 0.56 0.51 0.57 0.63 0.69 0.81 0.92 1.14 1.51 1.77 1.81 1.88 1.95 2.06 2.16 2.22 2.31 2.49 2.64 2.69 2.61 2.53 2.51 2.46 2.29 2.19 2.05
1.25 1.34 1.12 0.96 0.96 0.95 0.99 1.00 0.94 0.86 0.81 0.81 0.75 0.73 0.71 0.64 0.60 0.57 0.55 0.58 0.65 0.74 0.91 1.10 1.28 1.59 1.75 1.79 1.86 1.92 1.95 1.93 2.01 2.16 2.30 2.38 2.61 2.67 2.58 2.43 2.38 2.34 2.24 2.09
1.54 1.61 1.42 1.28 1.12 0.99 1.01 0.96 0.96 0.94 0.85 0.80 0.73 0.67 0.59 0.55 0.55 0.56 0.54 0.60 0.71 0.82 0.94 1.06 1.23 1.42 1.52 1.69 1.78 1.89 1.90 1.85 1.85 1.87 1.97 2.05 2.15 2.24 2.22 2.21 2.04 1.95 1.86 1.81
1.65 1.47 1.37 1.49 1.33 1.15 1.07 1.06 1.12 1.19 1.15 0.98 0.81 0.73 0.67 0.60 0.56 0.52 0.53 0.61 0.73 0.86 0.98 1.07 1.23 1.43 1.51 1.64 1.73 1.78 1.76 1.69 1.71 1.72 1.78 1.82 1.82 1.76 1.60 1.54 1.39 1.25 1.20 1.16
1.26 1.25 1.27 1.38 1.35 1.31 1.31 1.37 1.40 1.35 1.19 0.94 0.79 0.73 0.66 0.59 0.55 0.54 0.57 0.68 0.82 0.91 1.00 1.11 1.22 1.37 1.54 1.69 1.80 1.86 1.76 1.61 1.51 1.44 1.49 1.52 1.58 1.69 1.75 1.54 1.31 1.13 1.01 0.88
1.22 1.33 1.51 1.56 1.53 1.42 1.39 1.48 1.46 1.27 1.13 0.97 0.79 0.70 0.64 0.55 0.49 0.46 0.50 0.60 0.72 0.82 0.89 0.99 1.15 1.27 1.43 1.59 1.65 1.69 1.66 1.56 1.44 1.40 1.43 1.45 1.51 1.60 1.72 1.71 1.46 1.12 0.97 0.85
1.33 1.33 1.44 1.49 1.50 1.50 1.45 1.43 1.47 1.38 1.20 1.11 0.99 0.87 0.77 0.70 0.65 0.62 0.61 0.66 0.77 0.85 0.89 0.95 1.09 1.17 1.32 1.52 1.57 1.53 1.49 1.43 1.36 1.39 1.41 1.38 1.41 1.45 1.48 1.51 1.41 1.22 1.02 0.83
1.53 1.36 1.37 1.38 1.36 1.35 1.31 1.24 1.21 1.18 1.10 1.00 0.91 0.85 0.81 0.77 0.76 0.73 0.74 0.86 1.06 1.10 1.05 1.05 1.09 1.15 1.32 1.50 1.51 1.44 1.35 1.23 1.14 1.19 1.23 1.22 1.25 1.26 1.26 1.30 1.28 1.20 1.07 0.81
1.45 1.42 1.35 1.26 1.21 1.19 1.11 1.05 1.02 0.95 1.00 1.01 0.87 0.76 0.68 0.65 0.70 0.76 0.85 0.94 1.02 1.02 1.02 1.06 1.03 1.01 1.18 1.37 1.46 1.41 1.26 1.08 0.86 0.81 0.89 0.98 1.07 1.13 1.15 1.14 1.15 1.12 0.96 0.70
1.11 1.15 1.16 1.10 1.06 1.01 0.97 0.91 0.88 0.82 0.81 0.85 0.81 0.75 0.71 0.70 0.81 0.91 0.99 1.04 1.01 0.93 0.90 0.91 0.86 0.88 1.03 1.11 1.18 1.24 1.13 1.02 0.87 0.78 0.80 0.84 0.92 1.03 1.05 1.02 1.00 0.97 0.86 0.66
0.90 0.89 0.95 0.93 0.86 0.78 0.75 0.73 0.74 0.74 0.71 0.75 0.76 0.75 0.80 0.87 0.97 1.05 1.08 1.20 1.25 1.11 0.93 0.83 0.79 0.79 0.91 0.93 0.95 1.06 1.05 0.97 0.86 0.78 0.79 0.79 0.84 0.94 0.95 0.91 0.87 0.82 0.74 0.66
0.89 0.85 0.91 0.87 0.78 0.72 0.66 0.64 0.65 0.63 0.65 0.68 0.74 0.78 0.88 0.99 1.12 1.22 1.26 1.28 1.27 1.20 0.99 0.81 0.73 0.73 0.78 0.83 0.90 0.92 0.97 0.94 0.81 0.75 0.76 0.80 0.80 0.82 0.80 0.76 0.73 0.67 0.62 0.61
0.93 0.93 0.94 0.93 0.84 0.71 0.62 0.60 0.64 0.67 0.69 0.75 0.84 0.88 1.01 1.14 1.22 1.33 1.49 1.46 1.20 1.06 0.92 0.80 0.70 0.69 0.70 0.77 0.83 0.86 0.91 0.93 0.83 0.74 0.74 0.76 0.75 0.74 0.71 0.68 0.64 0.58 0.55 0.55
0.89 0.92 0.85 0.80 0.78 0.73 0.65 0.61 0.65 0.72 0.81 0.88 0.91 0.93 1.05 1.16 1.29 1.40 1.41 1.49 1.33 1.17 0.90 0.72 0.63 0.61 0.62 0.68 0.70 0.78 0.81 0.83 0.78 0.70 0.66 0.67 0.68 0.73 0.73 0.67 0.61 0.54 0.53 0.55
0.80 0.83 0.80 0.74 0.71 0.71 0.66 0.61 0.65 0.74 0.87 0.99 1.05 1.08 1.16 1.16 1.26 1.59 1.63 1.41 1.29 1.16 0.83 0.66 0.63 0.56 0.54 0.55 0.62 0.69 0.71 0.72 0.72 0.62 0.57 0.57 0.60 0.68 0.72 0.69 0.65 0.57 0.56 0.53
0.82 0.76 0.75 0.72 0.67 0.67 0.64 0.62 0.68 0.76 0.82 0.90 0.94 0.98 1.09 1.13 1.12 1.21 1.42 1.50 1.37 1.17 0.86 0.72 0.63 0.53 0.47 0.47 0.59 0.68 0.70 0.69 0.68 0.56 0.48 0.47 0.53 0.63 0.67 0.67 0.67 0.62 0.58 0.55
0.82 0.74 0.65 0.66 0.71 0.79 0.79 0.79 0.86 0.89 0.89 0.90 0.82 0.80 0.90 1.03 1.16 1.14 1.14 1.20 1.26 1.11 0.93 0.81 0.70 0.62 0.50 0.48 0.58 0.68 0.70 0.69 0.62 0.54 0.50 0.54 0.59 0.63 0.61 0.59 0.59 0.56 0.56 0.56
0.83 0.76 0.72 0.67 0.69 0.78 0.88 0.98 1.13 1.14 1.12 1.12 0.96 0.77 0.77 0.83 0.88 0.93 0.98 1.02 1.05 1.04 0.93 0.87 0.76 0.68 0.61 0.59 0.62 0.69 0.74 0.77 0.67 0.61 0.62 0.69 0.68 0.64 0.63 0.58 0.53 0.53 0.51 0.49
0.74 0.72 0.71 0.70 0.75 0.81 0.92 1.03 1.21 1.26 1.21 1.23 1.11 0.86 0.73 0.73 0.73 0.77 0.83 0.92 0.96 0.97 0.93 0.87 0.78 0.68 0.62 0.62 0.63 0.67 0.72 0.76 0.72 0.70 0.68 0.68 0.68 0.68 0.65 0.60 0.56 0.54 0.53 0.49